BREEZE-M R/B, 42935

Orbit data source: Space-Track

BREEZE-M R/B, 42935 is space debris in HEO originally from a launch on Mon, 11 Sep 2017 UTC launched from the Tyuratam Missile And Space Complex (TTMTR). Debris objects in space refer to the collection of defunct objects orbiting the Earth. Examples of debris include non-operational satellites, rocket bodies, and fragments generated from explosions, collisions, or faulty payload assembly.

Loading next visibility...
Identifier
42935, 2017-053B
Orbit
HEO
Country
Flag of CISCIS
Related business
Manufacturer
Khrunichev
Mission
Spacecraft
Bus & Motor
BRIZ, Unknown motor
Mass
~1,600 kg wet, 1,600 kg dry
Launch date (UTC)
2017-09-11 (9 years ago)
Launch vehicle
Unknown
Launch site
Tyuratam Missile And Space Complex (TTMTR)
Object type
Payload
Rocket body
Debris
Shape & HBR
Cyl, 2.0 m
Radar Cross Section
15.135 m², Large (>1 m²)

Expand to show TLE details & history
Last TLE update: 2 days ago

TLE from 2 days ago
0 BREEZE-M R/B
1 42935U 17053B   26171.01308277 -.00000093  00000-0  00000-0 0  9997
2 42935  23.4144  52.5499 5939736 326.2189   7.3074  2.19137417 70216
Epoch: 2026-06-20T00:18Z
TLE epoch observation values (Epoch: 2026-06-20T00:18:50.351Z)
Latitude
0.0002°
Longitude
139.5986°
Altitude
4,491.052 km
Speed
7.578 km/s
True Right ascension
03h 30m 10s
True Declination
0° 00' 01"
Sunlit
Object was in daylight at epoch
Visualization orbit readout
Latitude
Unknown
Longitude
Unknown
Altitude
Unknown
Speed
Unknown
Apparent Right ascension
Unknown
Apparent Declination
Unknown
Sunlit
N/A
Visualization observer readout
Local Sidereal Time
21:36:40
Azimuth
Unknown
Elevation
Unknown
Doppler factor
Unknown
Orbital elements
Apogee altitude
33,535.098 km
Perigee altitude
3,788.799 km
Semi-major axis
25,040.085 km
Eccentricity
0.59397
Inclination
23.4144°
RAAN
52.5499°
Arg. of periapsis
326.2189°
True anomaly
34.09497°
Mean anomaly
7.3074°
Eccentric anomaly
17.59471°
Mean motion
0.54776 °/min
Orbital period
657.22 mins
BSTAR
0
Loading maneuver chart data...
Computing Atmospheric mass density...
Loading historical data...
Loading historical data...
Loading historical data...
Loading historical data...
Loading historical data...
Loading historical data...
Loading historical data...
Other satellites on launch #53 in the year 2017 (2017-09-11 UTC)

Documentation

Showing up to 5 results
|